Date String (YYYY-MM-DD hh:mm:ss) UTC,Instrument flags,Ambient pressure (hPa),Sample flow (lpm),Bypass flow (lpm),Sample temperature (°C),Ambient temperature (°C),ASC tube jacket temperature (°C),LED temperature (°C),Box temperature (°C),Sample RH (%),Span deviation,Mass concentration (μg/m³),Mass concentration (μg/m³),Mass concentration (μg/m³)
DateTimeUTC,F1_M11,P_M11,Q1_M11,Q2_M11,T1_M11,T2_M11,T3_M11,T4_M11,T5_M11,U1_M11,ZSPAN_M11,X0_M11,X2_M11,X1_M11
2021-09-03 11:00:00,,0829.1,5.00,0.00,30.2,29.3,00.0,39.2,32.0,27.6,0001.9,0019.48,0016.61,0016.11
2021-09-03 11:01:00,,0829.2,5.00,0.00,30.2,27.9,00.0,39.2,31.6,27.6,0002.0,0019.42,0016.57,0016.10
2021-09-03 11:02:00,,0829.1,4.99,0.00,30.0,26.4,00.0,39.2,31.3,27.9,0002.0,0019.45,0016.60,0016.11
2021-09-03 11:03:00,,0829.2,5.00,0.00,29.9,26.3,00.0,39.2,31.2,28.1,0002.0,0019.42,0016.61,0016.13
2021-09-03 11:04:00,,0829.2,5.01,0.00,29.8,26.7,00.0,39.1,31.2,28.2,0001.9,0019.30,0016.58,0016.12
2021-09-03 11:05:00,,0829.1,5.00,0.00,29.8,27.1,00.0,39.1,31.2,28.3,0001.7,0019.31,0016.58,0016.11
2021-09-03 11:06:00,,0829.1,5.01,0.00,29.7,27.5,00.0,39.0,31.3,28.4,0001.8,0019.34,0016.57,0016.11
2021-09-03 11:07:00,,0829.2,4.99,0.00,29.7,27.8,00.0,39.0,31.4,28.5,0001.8,0019.42,0016.58,0016.10
2021-09-03 11:08:00,,0829.1,5.01,0.00,29.8,28.0,00.0,39.0,31.4,28.6,0001.8,0019.32,0016.53,0016.08
2021-09-03 11:09:00,,0828.6,4.99,0.00,29.8,28.2,00.0,39.0,31.5,28.4,0001.8,0019.24,0016.51,0016.07
2021-09-03 11:10:00,,0828.7,5.00,0.00,29.8,28.4,00.0,39.0,31.5,28.4,0001.8,0019.22,0016.51,0016.07
2021-09-03 11:11:00,,0829.1,4.99,0.00,29.8,28.5,00.0,39.0,31.5,28.4,0001.8,0019.07,0016.49,0016.05
2021-09-03 11:12:00,,0829.2,5.00,0.00,29.8,28.6,00.0,39.0,31.6,28.3,0001.9,0018.84,0016.49,0016.05
2021-09-03 11:13:00,,0829.0,5.00,0.00,29.8,28.7,00.0,39.0,31.6,28.3,0001.9,0018.76,0016.47,0016.07
2021-09-03 11:14:00,,0828.9,4.99,0.00,29.9,28.7,00.0,39.0,31.6,28.3,0002.0,0018.99,0016.47,0016.07
2021-09-03 11:15:00,,0828.7,5.01,0.00,29.9,28.8,00.0,39.0,31.6,28.3,0002.2,0019.25,0016.51,0016.08
2021-09-03 11:16:00,,0828.7,5.00,0.00,29.9,28.8,00.0,39.0,31.7,28.3,0002.4,0019.37,0016.54,0016.09
2021-09-03 11:17:00,,0828.8,4.99,0.00,29.9,28.8,00.0,39.0,31.7,28.3,0002.4,0019.36,0016.55,0016.07
2021-09-03 11:18:00,,0829.0,5.01,0.00,29.9,28.9,00.0,39.0,31.7,28.2,0002.4,0019.36,0016.53,0016.05
2021-09-03 11:19:00,,0829.1,4.99,0.00,30.0,28.9,00.0,39.0,31.7,28.2,0002.2,0019.32,0016.51,0016.04
2021-09-03 11:20:00,,0829.2,5.01,0.00,30.0,29.0,00.0,39.0,31.7,28.2,0002.2,0019.35,0016.53,0016.05
2021-09-03 11:21:00,,0829.1,4.99,0.00,30.0,29.0,00.0,39.0,31.8,28.2,0002.2,0019.93,0016.53,0016.03
2021-09-03 11:22:00,,0828.7,5.00,0.00,30.0,29.0,00.0,39.1,31.8,28.1,0002.3,0020.00,0016.51,0016.02
2021-09-03 11:23:00,,0828.5,5.00,0.00,30.0,29.0,00.0,39.1,31.9,28.1,0002.0,0020.04,0016.51,0016.00
2021-09-03 11:24:00,,0828.9,5.01,0.00,30.1,29.1,00.0,39.1,31.9,28.1,0001.8,0020.08,0016.50,0015.97
2021-09-03 11:25:00,,0828.8,5.01,0.00,30.1,29.1,00.0,39.1,31.9,28.0,0001.6,0019.86,0016.48,0015.95
2021-09-03 11:26:00,,0828.9,4.99,0.00,30.1,29.1,00.0,39.1,31.9,28.1,0001.7,0019.72,0016.49,0015.95
2021-09-03 11:27:00,,0828.9,5.00,0.00,30.1,29.1,00.0,39.1,31.9,28.0,0001.7,0019.71,0016.43,0015.93
2021-09-03 11:28:00,,0829.1,5.01,0.00,30.1,29.2,00.0,39.2,31.9,28.0,0001.7,0019.99,0016.41,0015.92
2021-09-03 11:29:00,,0828.9,4.99,0.00,30.2,29.2,00.0,39.2,31.9,28.0,0001.8,0020.24,0016.48,0015.94
2021-09-03 11:30:00,,0829.0,5.00,0.00,30.2,29.2,00.0,39.2,32.0,28.0,0001.9,0020.43,0016.53,0015.95
2021-09-03 11:31:00,,0828.7,4.99,0.00,30.2,29.2,00.0,39.2,32.0,27.9,0001.8,0020.50,0016.54,0015.94
2021-09-03 11:32:00,,0828.9,5.01,0.00,30.2,29.2,00.0,39.2,32.0,27.9,0001.9,0019.92,0016.55,0015.95
2021-09-03 11:33:00,,0829.0,4.99,0.00,30.3,29.3,00.0,39.2,32.0,27.9,0002.1,0020.86,0016.57,0015.96
2021-09-03 11:34:00,,0828.9,5.01,0.00,30.3,29.3,00.0,39.3,32.0,27.8,0002.2,0020.96,0016.60,0015.99
2021-09-03 11:35:00,,0829.0,5.00,0.00,30.3,29.3,00.0,39.3,32.0,27.8,0002.4,0020.95,0016.60,0015.99
2021-09-03 11:36:00,,0828.9,5.00,0.00,30.3,29.1,00.0,39.3,32.0,27.8,0002.6,0020.93,0016.62,0016.02
2021-09-03 11:37:00,,0829.1,5.00,0.00,30.2,27.5,00.0,39.3,31.6,27.9,0002.5,0020.82,0016.60,0016.04
2021-09-03 11:38:00,,0829.0,5.00,0.00,30.0,26.4,00.0,39.3,31.3,28.2,0002.3,0021.06,0016.63,0016.06
2021-09-03 11:39:00,,0828.8,5.00,0.00,29.9,26.5,00.0,39.2,31.3,28.3,0002.2,0021.22,0016.67,0016.11
2021-09-03 11:40:00,,0828.7,4.99,0.00,29.8,26.9,00.0,39.2,31.3,28.5,0002.2,0021.17,0016.61,0016.14
2021-09-03 11:41:00,,0828.9,5.00,0.00,29.8,27.3,00.0,39.1,31.3,28.7,0002.2,0021.36,0016.62,0016.14
2021-09-03 11:42:00,,0829.0,5.01,0.00,29.8,27.7,00.0,39.1,31.4,29.0,0002.3,0021.34,0016.60,0016.12
2021-09-03 11:43:00,,0829.0,4.99,0.00,29.8,27.9,00.0,39.1,31.4,28.8,0002.2,0021.34,0016.58,0016.12
2021-09-03 11:44:00,,0829.0,5.01,0.00,29.8,28.1,00.0,39.0,31.5,28.8,0002.1,0020.69,0016.56,0016.09
2021-09-03 11:45:00,,0829.1,4.99,0.00,29.8,28.3,00.0,39.0,31.5,28.7,0002.1,0020.55,0016.52,0016.08
2021-09-03 11:46:00,,0829.1,4.99,0.00,29.8,28.4,00.0,39.0,31.5,28.7,0001.9,0020.54,0016.50,0016.08
2021-09-03 11:47:00,,0829.1,5.01,0.00,29.9,28.5,00.0,39.0,31.6,28.8,0001.8,0020.52,0016.46,0016.04
2021-09-03 11:48:00,,0829.0,5.00,0.00,29.9,28.6,00.0,39.0,31.6,28.7,0001.9,0020.52,0016.46,0016.04
2021-09-03 11:49:00,,0829.0,4.99,0.00,29.9,28.7,00.0,39.0,31.6,28.6,0001.9,0020.22,0016.48,0016.04
2021-09-03 11:50:00,,0829.1,4.99,0.00,29.9,28.7,00.0,39.0,31.7,28.6,0002.0,0019.74,0016.48,0016.03
2021-09-03 11:51:00,,0829.1,4.99,0.00,29.9,28.8,00.0,39.0,31.7,28.8,0001.9,0019.45,0016.46,0015.99
2021-09-03 11:52:00,,0829.1,5.00,0.00,30.0,28.9,00.0,39.0,31.7,28.8,0001.9,0019.10,0016.39,0015.95
2021-09-03 11:53:00,,0828.9,5.01,0.00,30.0,28.9,00.0,39.0,31.7,28.6,0001.9,0019.06,0016.38,0015.94
2021-09-03 11:54:00,,0828.9,5.00,0.00,30.0,28.9,00.0,39.1,31.8,28.4,0002.0,0019.06,0016.40,0015.94
2021-09-03 11:55:00,,0829.0,4.99,0.00,30.0,29.0,00.0,39.1,31.8,28.4,0001.9,0019.23,0016.51,0015.97
2021-09-03 11:56:00,,0829.1,5.01,0.00,30.0,29.0,00.0,39.1,31.8,28.4,0002.0,0019.42,0016.58,0015.97
2021-09-03 11:57:00,,0829.2,5.00,0.00,30.1,29.0,00.0,39.1,31.8,28.4,0002.1,0019.84,0016.64,0016.01
2021-09-03 11:58:00,,0829.0,4.99,0.00,30.1,29.1,00.0,39.1,31.9,28.3,0002.0,0020.11,0016.67,0016.02
2021-09-03 11:59:00,,0829.0,5.01,0.00,30.1,29.1,00.0,39.1,31.9,28.3,0001.8,0020.22,0016.66,0016.01
